Unit,1F5,,,,
Data type,Regular data,,,,
Sampling cycle,10 seconds,,,,
Number of data,1470,,,,
Number of signals,74,,,,
Time when data recording was started,2011/3/2 11:53:56,,,,
Time when data recording was finished,2011/3/12 16:43:56,,,,
Interval,1,,,,
Name of original data,1F5_Cy1_PDF_2011_03_02_11_53_56_10min.dat,,,,









,PLR pump A_upper part vibration,PLR pump B_upper part vibration,Recirculation loop_A_flow rate,Recirculation loop_B_flow rate,MG_A_generator current,MG_B_generator current,Scoop tube_A_position settings,Scoop tube_B_position settings,Recirculation pump_A_differential pressure,Recirculation pump_B_differential pressure,Jet pump_A_flow rate,Jet pump_B_flow rate,Differential pressure among grid plates on the reactor core bottom part,MG set generator A_speed,MG set generator B_speed,Reactor core differential pressure,MG_A_generator voltage,MG_B_generator voltage,Generator power,Generator current �iS phase�j,Generator voltage �iS-T phase�j,Generator field current,Generator field voltage,Generator reactive power,Generator current �iR phase�j,Generator current �iT phase�j,Generator voltage �iR-S phase�j,Generator voltage �iT-R phase�j,System voltage,System frequency,480V_P/C_5C,480V_P/C_5D,Reactor pressure (N/R),Reactor pressure (W/R),Turbine first stage steam room pressure,EHC load requirement error signal,TB_control valve_#1_opening amount,TB_control valve_#2_opening amount,TB_control valve_#3_opening amount,TB_control valve_#4_opening amount,EHC_pressure sensor signal,TB bypass valve #1_opening amount,TB bypass valve #2_opening amount,EHC_pressure setting signal,TB bypass valve #3_opening amount,TB_control valve opening amount_�itotal�j,Bypass valve opening amount_�itotal�j,Intercept valve #1 opening amount,Intercept valve #3 opening amount,Intercept valve #5 opening amount,EHC_load setting signal,Intermediate steam pressure,P/L_unbalance amount,EHC_pressure control signal,Turbine speed signal,Condenser vacuum_(W/R),HPCI_pump discharge pressure,HPCI_pump discharge flow rate,HPCI turbine rotation speed,HPCI_flow rate controller output,CS_A pump_discharge pressure,CS_B pump_discharge pressure,CS_A pump_discharge flow rate,CS_B pump_discharge flow rate,RCIC_pump discharge pressure,RCIC_pump discharge flow rate,RCIC turbine rotation speed,RCIC_flow rate controller output,D/G_5A voltage_R-T,D/G_5B voltage_R-T,D/G_5A current (R),D/G_5B current (R),Reactor water level (N/R)_B,Reactor water level (N/R)_C
Time data,��m,��m,t/h,t/h,A,A,%,%,MPa,MPa,t/h,t/h,kPa,%,%,kPa,V,V,MW,kA,kV,A,V,MVAR,kA,kA,kV,kV,kV,Hz,V,V,MPa,MPa,MPa,%,%,%,%,%,MPa,%,%,MPa,%,%,%,%,%,%,%,%,%,%,rpm,kPaa,MPa,t/h,rpm,%,MPa,MPa,t/h,t/h,MPa,t/h,rpm,%,V,V,A,A,mm,mm
2011/3/11 12:03:56,37.365,3.5325,2762.4,2811.36,176.82,183.48,31.767,30.142375,0.1245,0.134775,6982.5,7178.5,16.49,30.0225,30.6525,41.96,1039.29,1070.79,0.0864,0.0252,-0.0315,-5.625,0.16875,0.6912,-0.0648,-0.0882,-0.072,-0.04275,544.96,49.956,468.624,467.76,7.15187555,7.1489536,-0.075,25.002,-4.395,-4.43,-3.985,-4.115,0.01213575,3.005,2.645,6.4363605,3.03,-4.285,2.885,-0.13,-0.225,-0.235,0.192,3.1515,2.88,0.025,-0.1875,100.98,0.186,-1.2,-8.5,103.95,0.0686,0.07595,-1.95,-2.025,0.1975,-0.12,-2.7,101.88,-10.35,-12.15,-1.95,-1.7,1535.4375,1535.625
2011/3/11 12:13:56,35.4075,3.5475,2763.36,2810.88,178.92,182.22,31.587625,30.142375,0.123975,0.134025,7014,7166.25,16.43,29.928,30.663,41.88,1043.07,1073.52,0.0864,0.0234,-0.030375,-5.3125,0.16875,0.5184,-0.063,-0.0864,-0.073125,-0.0405,545.584,49.988,469.344,468.144,7.16393775,7.1614576,-0.0745,25.008,-4.385,-4.42,-3.985,-4.115,0.011768,3.01,2.675,6.43599275,3.04,-4.275,2.89,-0.14,-0.215,-0.24,0.198,3.1515,2.88,0.025,-0.1875,100.9745,0.185,-1.26,-8.25,103.945,0.0686,0.0756,-1.95,-2.025,0.1965,-0.114,-2.7,101.87,-10.35,-12.15,-1.9,-1.75,1535.53125,1535.53125
2011/3/11 12:23:56,45.1875,3.5625,2798.4,2811.36,178.92,183.72,31.495375,30.11675,0.12675,0.13455,7082.25,7140,16.61,30.285,30.6525,42.16,1051.89,1071.21,0.1728,0.0252,-0.030375,-5.625,0.16875,0.6048,-0.0648,-0.0864,-0.070875,-0.039375,545.688,49.9916,469.776,468.192,7.175338,7.1722944,-0.0745,25.008,-4.36,-4.425,-3.995,-4.115,0.011768,3.04,2.69,6.4363605,3.025,-4.28,2.895,-0.145,-0.225,-0.23,0.198,3.157,2.89,0.03,0,100.9525,0.185,-1.26,-8.5,103.945,0.0686,0.075775,-2.025,-2.1,0.1965,-0.12,-3,101.86,-10.35,-12.6,-2,-1.7,1535.34375,1535.625
2011/3/11 12:33:56,33.585,3.54,2785.92,2810.88,178.02,182.64,31.700375,30.132125,0.12675,0.134775,7007,7141.75,16.6,30.285,30.69975,42.18,1051.05,1077.3,0.1728,0.0252,-0.0315,-5.9375,0.16875,0.6912,-0.063,-0.0846,-0.07425,-0.0405,545.168,49.9912,468.768,468.048,7.1673946,7.1643752,-0.0745,25.01,-4.385,-4.41,-3.975,-4.11,0.0125035,3.015,2.66,6.435625,3.03,-4.285,2.885,-0.12,-0.215,-0.24,0.204,3.157,2.89,0.03,0,100.947,0.185,-1.2,-8,103.955,0.0686,0.0756,-1.95,-2.025,0.1965,-0.126,-3.3,101.87,-10.35,-13.05,-2,-1.75,1535.625,1535.53125
2011/3/11 12:43:56,29.8275,3.5475,2774.88,2811.36,177.9,184.14,31.5005,30.152625,0.1245,0.134925,6977.25,7204.75,16.5,30.0435,30.684,41.96,1039.71,1078.77,0.1728,0.0252,-0.030375,-5.625,0.225,0.5184,-0.0612,-0.0864,-0.07425,-0.0405,545.272,50.0064,469.152,468.048,7.15761245,7.1552056,-0.075,25.008,-4.38,-4.43,-4,-4.12,0.01140025,3.025,2.66,6.43599275,3.035,-4.28,2.885,-0.135,-0.21,-0.24,0.192,3.1515,2.87,0.025,-0.1875,100.914,0.185,-1.2,-8.25,103.95,0.068425,0.0756,-2.025,-2.025,0.1965,-0.12,-3,101.88,-10.35,-13.05,-1.95,-1.75,1535.625,1535.53125
2011/3/11 12:53:56,28.485,3.555,2786.88,2799.36,179.7,182.58,31.71575,30.152625,0.12645,0.1344,7014,7138.25,16.53,30.26925,30.663,42.06,1051.05,1076.04,0.0864,0.0234,-0.030375,-5.9375,0.16875,0.6912,-0.0612,-0.0882,-0.072,-0.0405,545.272,49.9964,468.72,467.904,7.15246395,7.1493704,-0.075,25.008,-4.395,-4.43,-4.01,-4.115,0.0125035,3.005,2.665,6.43599275,3.04,-4.28,2.89,-0.13,-0.215,-0.235,0.198,3.157,2.87,0.025,-0.09375,100.8975,0.185,-1.26,-8.5,103.95,0.068775,0.0756,-2.025,-2.025,0.1975,-0.12,-3,101.88,-10.8,-13.05,-2,-1.75,1535.625,1535.8125
2011/3/11 13:03:56,25.1475,3.5625,2762.88,2811.36,177.84,182.88,31.5415,30.121875,0.124425,0.13425,6979,7140,16.48,30.075,30.684,41.94,1048.53,1078.35,0.1728,0.0216,-0.02925,-5.3125,0.16875,0.5184,-0.063,-0.0846,-0.073125,-0.039375,545.064,50.0144,468.912,467.712,7.1491542,7.146036,-0.0745,25.006,-4.375,-4.425,-3.985,-4.12,0.01213575,3,2.67,6.43599275,3.03,-4.275,2.875,-0.135,-0.215,-0.245,0.198,3.1515,2.86,0.03,-0.09375,100.8975,0.185,-1.32,-8.5,103.95,0.0686,0.075775,-1.95,-2.1,0.196,-0.114,-3,101.87,-9.9,-13.05,-2.05,-1.8,1535.625,1535.71875
2011/3/11 13:13:56,20.445,3.54,2751.36,2811.84,178.74,183.42,31.700375,30.127,0.1236,0.134175,6937,7176.75,16.32,29.91225,30.6315,41.78,1038.87,1076.88,0.1728,0.0234,-0.0315,-5.625,0.16875,0.6048,-0.063,-0.0882,-0.073125,-0.0405,545.168,49.9764,468.672,467.952,7.15378785,7.1510376,-0.075,25.008,-4.395,-4.43,-3.995,-4.115,0.01140025,3.005,2.685,6.435625,3.06,-4.28,2.9,-0.12,-0.23,-0.24,0.204,3.1625,2.86,0.025,-0.1875,100.903,0.185,-1.14,-8.5,103.94,0.068425,0.075775,-2.025,-2.1,0.1965,-0.108,-2.7,101.87,-10.35,-13.05,-1.95,-1.8,1535.625,1535.53125
2011/3/11 13:23:56,20.88,3.5475,2763.84,2811.36,177.3,182.7,31.690125,30.1475,0.1248,0.1341,6980.75,7145.25,16.48,30.04875,30.6525,41.92,1043.49,1069.53,0.1728,0.0216,-0.030375,-5.9375,0.1125,0.6048,-0.0648,-0.0864,-0.075375,-0.0405,545.064,49.9964,468.864,467.952,7.1645997,7.1622912,-0.075,25.006,-4.37,-4.42,-3.98,-4.115,0.01140025,3.01,2.665,6.4363605,3.035,-4.255,2.885,-0.125,-0.215,-0.24,0.198,3.157,2.87,0.025,-0.1875,100.881,0.1845,-1.32,-8.5,103.955,0.0686,0.0756,-1.95,-2.025,0.197,-0.126,-3,101.87,-10.8,-12.15,-2.05,-1.7,1535.53125,1535.53125
2011/3/11 13:33:56,19.9425,3.5625,2763.36,2811.36,179.04,182.4,31.562,30.15775,0.124575,0.13425,7012.25,7171.5,16.46,30.0225,30.684,41.92,1043.07,1076.25,0.2592,0.0216,-0.030375,-5.625,0.16875,0.6912,-0.0594,-0.0882,-0.07425,-0.0405,544.96,50.02,469.152,467.76,7.17158695,7.1685432,-0.0745,25.006,-4.395,-4.425,-4.005,-4.115,0.01213575,3.02,2.665,6.4363605,3.025,-4.27,2.885,-0.115,-0.22,-0.245,0.204,3.157,2.89,0.035,-0.1875,100.8755,0.186,-1.14,-8.5,103.955,0.0686,0.0756,-2.025,-2.025,0.1965,-0.12,-2.7,101.88,-9.9,-12.6,-2.05,-1.75,1535.53125,1535.53125
2011/3/11 13:43:56,16.875,3.54,2763.36,2811.36,178.2,183.48,31.767,30.142375,0.124725,0.134625,6942.25,7176.75,16.44,30.054,30.65775,41.9,1047.27,1078.56,0.1728,0.0216,-0.030375,-5.625,0.16875,0.6912,-0.0612,-0.0882,-0.073125,-0.041625,544.96,49.986,468.672,467.76,7.15525885,7.1527048,-0.0745,25.006,-4.375,-4.42,-3.995,-4.12,0.011768,3.02,2.695,6.43599275,3.025,-4.275,2.88,-0.12,-0.2,-0.25,0.198,3.1515,2.86,0.025,-0.1875,100.848,0.1855,-1.32,-8.25,103.95,0.068425,0.075775,-2.025,-2.025,0.1965,-0.114,-3,101.87,-9.9,-13.05,-2,-1.75,1535.53125,1535.625
2011/3/11 13:53:56,16.17,3.5625,2762.88,2811.36,178.5,182.7,31.546625,30.1475,0.12465,0.1341,6977.25,7143.5,16.49,30.0435,30.6315,41.92,1048.11,1076.04,0.3456,0.0234,-0.0315,-5,0.16875,0.7776,-0.063,-0.0864,-0.072,-0.0405,545.064,49.9828,469.392,467.808,7.14054885,7.1381168,-0.0745,25.008,-4.375,-4.425,-4.005,-4.12,0.01213575,3.02,2.67,6.43599275,3.025,-4.285,2.88,-0.12,-0.21,-0.245,0.198,3.1515,2.87,0.025,-0.1875,100.8425,0.185,-1.2,-8.5,103.955,0.0686,0.07595,-2.1,-2.1,0.1965,-0.12,-2.7,101.86,-10.8,-13.05,-2,-1.75,1535.53125,1535.71875
2011/3/11 14:03:56,14.8125,3.5475,2763.36,2811.36,178.14,182.04,31.802875,30.132125,0.124425,0.134325,6938.75,7208.25,16.44,30.02775,30.65775,41.86,1040.55,1071.84,0.0864,0.0234,-0.0315,-5.625,0.225,0.6912,-0.063,-0.0864,-0.073125,-0.039375,544.856,49.9736,469.104,467.808,7.1554795,7.1527048,-0.0745,25.006,-4.385,-4.425,-3.995,-4.115,0.01213575,3,2.65,6.435625,3.01,-4.28,2.885,-0.13,-0.22,-0.24,0.192,3.157,2.88,0.02,-0.1875,100.881,0.1845,-1.2,-8.5,103.95,0.0686,0.075775,-1.95,-2.025,0.197,-0.12,-3,101.88,-9.9,-12.15,-2.05,-1.65,1535.53125,1535.53125
2011/3/11 14:13:56,15.4425,3.5625,2763.84,2811.84,177.06,182.94,31.720875,30.127,0.124425,0.134025,6980.75,7171.5,16.45,30.02775,30.68925,41.88,1041.81,1077.09,0.0864,0.027,-0.02925,-5.3125,0.1125,0.6048,-0.0612,-0.0864,-0.073125,-0.04275,544.96,50.0204,469.68,468.144,7.16526165,7.162708,-0.075,25.006,-4.39,-4.42,-4.015,-4.12,0.011768,3,2.66,6.4363605,2.995,-4.285,2.875,-0.115,-0.215,-0.245,0.204,3.1515,2.88,0.03,-0.09375,100.881,0.1845,-1.2,-8.25,103.955,0.068775,0.0756,-1.95,-1.95,0.1965,-0.114,-3.3,101.87,-10.35,-13.05,-2.05,-1.75,1535.625,1535.4375
2011/3/11 14:23:56,18.7425,3.5475,2786.88,2811.36,178.86,183.48,31.485125,30.11675,0.126525,0.1341,7049,7141.75,16.57,30.2535,30.684,41.98,1053.78,1072.26,0.1728,0.0234,-0.030375,-5,0.225,0.6048,-0.0612,-0.0864,-0.072,-0.0405,545.168,50.0312,469.344,468.144,7.15481755,7.1518712,-0.0745,25.004,-4.395,-4.425,-3.98,-4.13,0.01213575,3.015,2.62,6.435625,2.98,-4.285,2.845,-0.12,-0.225,-0.245,0.192,3.157,2.87,0.025,-0.09375,100.8645,0.1855,-1.2,-8.25,103.95,0.06895,0.07595,-1.95,-2.1,0.1965,-0.12,-2.7,101.87,-10.35,-13.05,-2.1,-1.8,1535.4375,1535.625
2011/3/11 14:33:56,16.305,3.5475,2751.36,2799.84,177,182.58,31.53125,30.1475,0.12405,0.134025,6980.75,7140,16.4,29.99625,30.6525,41.78,1041.39,1077.3,0.1728,0.0234,-0.02925,-5.3125,0.16875,0.5184,-0.0666,-0.0864,-0.073125,-0.0405,545.064,49.966,469.296,468.096,7.14863935,7.146036,-0.075,25.008,-4.38,-4.425,-4.01,-4.135,0.011768,3.015,2.66,6.4363605,3,-4.285,2.885,-0.135,-0.23,-0.245,0.204,3.146,2.86,0.025,-0.09375,100.8865,0.1845,-1.2,-8.5,103.955,0.0686,0.07595,-2.025,-2.025,0.1965,-0.114,-3,101.87,-10.8,-13.05,-2.05,-1.7,1535.625,1535.53125
2011/3/11 14:43:56,28.1625,3.5625,2786.88,2811.84,178.74,182.46,31.444125,30.152625,0.125775,0.135075,7008.75,7141.75,16.45,30.159,30.663,41.86,1046.01,1074.15,0.1728,0.0252,-0.030375,-5.3125,0.16875,0.6912,-0.0648,-0.0864,-0.073125,-0.039375,545.48,49.9816,469.632,468.24,7.1512136,7.1485368,-0.075,25.008,-4.41,-4.44,-4.005,-4.13,0.01213575,3,2.63,6.43599275,2.985,-4.305,2.845,-0.12,-0.23,-0.25,0.198,3.1515,2.87,0.025,-0.09375,100.8535,0.185,-1.2,-8.75,103.955,0.0686,0.0756,-2.025,-2.025,0.1965,-0.12,-3.3,101.87,-10.8,-12.6,-2,-1.75,1535.53125,1535.625
2011/3/11 14:53:56,57.9525,3.6975,1.92,1.44,-0.6,-0.24,31.972,29.814375,0.000525,0.003525,854,273,-0.06,0.003,-0.0075,20.72,-1.26,-1.26,0.2592,0.0234,-0.030375,-5.625,0.16875,0.6048,-0.063,-0.0882,-0.073125,-0.04275,555.464,49.9336,472.608,464.928,6.123573,4.9670056,-0.0745,25.006,-4.87,-4.645,-4.385,-4.32,0.01140025,3.07,2.79,6.43599275,3.17,-4.59,2.955,-0.09,-0.235,-0.245,0.198,3.157,2.87,0.035,-0.09375,100.87,0.2705,-1.26,-8.5,103.95,0.06825,0.075775,-1.95,-2.025,0.2705,-0.114,-2.7,101.86,6921,6849,52.25,255,1535.625,1535.53125
2011/3/11 15:03:56,18.165,3.7425,0.48,0,-0.6,-0.3,31.946375,29.834875,0.0006,0.00255,782.25,686,-0.05,-0.01275,-0.0075,20.7,-1.26,-1.26,0.0864,0.0216,-0.030375,-5,0.225,0.7776,-0.0648,-0.0882,-0.073125,-0.041625,556.192,50.0108,476.592,469.104,6.12320525,5.028692,-0.074,25.006,-4.88,-4.68,-4.355,-4.35,0.011768,3.075,2.765,6.435625,3.115,-4.585,2.975,-0.12,-0.225,-0.24,0.198,3.157,2.87,0.025,-0.1875,100.8865,0.2695,-1.26,-8.25,103.945,0.068075,0.075425,-2.025,-1.95,0.2685,-0.12,-2.7,101.875,6945.75,6866.1,37.65,228.5,1535.625,1535.34375
2011/3/11 15:13:56,75.0975,3.75,0,0,-0.54,-0.3,31.972,29.834875,0.000825,0.00255,1368.5,309.75,-0.04,0.00825,0.003,20.66,-1.26,-1.47,0.3456,0.0198,-0.030375,-5.3125,0.16875,0.7776,-0.063,-0.0882,-0.073125,-0.04275,557.128,49.9804,476.784,469.392,6.1232788,5.0553672,-0.075,25.006,-4.865,-4.68,-4.355,-4.36,0.0125035,3.11,2.765,6.43599275,3.11,-4.595,2.97,-0.085,-0.23,-0.24,0.198,3.1515,2.88,0.03,-0.09375,100.914,0.2695,-1.26,-9,103.94,0.068075,0.075425,-2.025,-2.1,0.2675,-0.126,-2.7,101.87,6947.55,6872.4,37.75,226,1535.53125,1535.53125
2011/3/11 15:23:56,27.885,3.6675,0,0,-0.6,-0.36,31.90025,29.84,0.000825,0.002625,451.5,640.5,-0.06,-0.00225,-0.01275,20.62,-1.26,-1.68,0.2592,0.0216,-0.0315,-5,0.1125,0.7776,-0.063,-0.0864,-0.07425,-0.04275,557.128,50.0176,477.024,469.68,6.12349945,5.0795416,-0.075,25.004,-4.865,-4.69,-4.35,-4.33,0.011768,3.1,2.76,6.43599275,3.12,-4.595,2.975,-0.095,-0.225,-0.255,0.192,3.146,2.85,0.03,0,100.9085,0.268,-1.26,-8.5,103.945,0.068075,0.075425,-1.95,-2.025,0.2665,-0.12,-3,101.86,6951.15,6873.3,37.85,231.75,1535.53125,1535.53125
2011/3/11 15:33:56,41.415,3.645,0,0,-0.6,-0.36,31.884875,29.814375,0.000975,0.003,502.25,462,-0.05,0.00825,-0.0075,20.58,-1.26,-1.68,0.2592,0.0198,-0.0315,-5.3125,0.16875,0.6048,-0.063,-0.0882,-0.07425,-0.041625,557.44,49.9816,476.832,469.008,6.12364655,5.1074672,-0.075,25.004,-4.86,-4.585,-4.36,-4.265,0.01213575,3.12,2.92,6.435625,3.235,-4.535,3.06,-0.055,-0.19,-0.175,0.204,3.1515,2.85,0.025,-0.1875,100.9415,0.268,-1.38,-8.25,103.94,0.068425,0.07525,-2.1,-2.1,0.2665,-0.12,-2.7,101.87,6949.35,6872.4,37.95,229,1535.4375,1535.53125
2011/3/11 15:43:56,-33.7275,-34.4475,-0.48,0,-300.12,-300.54,31.864375,29.834875,-0.37515,-0.37485,-7000,-7012.25,-49.98,-0.018,-0.01275,-100.06,-1050.42,-1050.84,0.1728,-8.9784,-5.60925,-1248.75,-225,-7.6032,-8.9784,-8.9784,-5.610375,-5.607,-0.52,44.814,-0.144,0,6.123573,5.1387272,-2.5,25.004,-4.855,-4.59,-4.315,-4.23,0.0110325,3.145,3.105,6.4348895,3.285,-4.52,3.13,-0.05,-0.19,-0.15,0.198,3.1515,2.86,0.025,-0.1875,100.991,0.268,-1.32,-8.5,103.94,0.0679,0.075075,-2.025,-2.025,0.267,-0.126,-2.4,101.85,-10.35,-13.5,-2,-1.75,1535.4375,1535.34375
2011/3/11 15:53:56,-34.98,-35.595,0,-0.96,-300.12,-300.42,31.874625,29.834875,-0.375225,-0.375,-7000,-7014,-49.98,-0.01275,-0.01275,-100.02,-1050.42,-1051.05,0.3456,-9.0036,-5.625,-1248.75,-225,-1.3824,-9,-9,-5.625,-5.62275,-0.624,44.8052,-0.144,-0.048,6.12379365,5.1837416,-2.5,24.998,-4.86,-4.615,-4.345,-4.29,0.011768,3.14,2.985,6.43452175,3.24,-4.54,3.1,-0.085,-0.185,-0.215,0.192,3.146,2.85,0.02,-0.28125,100.9525,0.268,-1.32,-8.5,103.935,0.067725,0.075075,-2.025,-1.95,0.268,-0.114,-1.2,101.86,-11.7,-13.5,-1.65,-1.75,1535.34375,1535.25
2011/3/11 16:03:56,-35.5275,-36.075,0,-0.48,-300.18,-300.36,31.8695,29.824625,-0.375075,-0.375,-7001.75,-7014,-49.99,-0.00225,-0.0075,-100.04,-1050.21,-1051.05,0.3456,-9.0054,-5.626125,-1249.6875,-225,-0.6912,-9.0054,-9.0054,-5.626125,-5.625,-0.52,44.8032,-0.192,-0.096,6.1238672,5.2262552,-2.5,24.996,-4.85,-4.65,-4.36,-4.295,0.01066475,3.105,2.975,6.43378625,3.23,-4.535,3.065,-0.08,-0.195,-0.21,0.192,3.1405,2.86,0.02,-0.375,100.958,0.268,-1.26,-8.5,103.935,0.0679,0.07525,-1.95,-1.95,0.267,-0.114,0,101.85,-10.8,-13.5,-1.8,-1.8,1535.34375,1535.25
2011/3/11 16:13:56,-35.9175,-36.42,0,-0.48,-300.18,-300.36,31.8695,29.799,-0.37515,-0.375,-7000,-7014,-49.97,-0.0075,-0.02325,-100.08,-1050.42,-1051.05,0.3456,-9.0072,-5.628375,-1249.375,-225,-0.6048,-9.0054,-9.0036,-5.62725,-5.626125,-0.624,44.802,-0.144,-0.144,6.1240143,5.2687688,-2.4995,24.996,-4.875,-4.69,-4.385,-4.235,0.011768,3.14,2.985,6.434154,3.23,-4.555,3.07,-0.05,-0.195,-0.185,0.186,3.1515,2.85,0.02,-0.1875,100.9525,0.2685,-1.26,-8.25,103.94,0.0679,0.075425,-1.875,-2.025,0.268,-0.108,0.6,101.85,-11.25,-13.5,-2.1,-1.9,1535.25,1535.15625
2011/3/11 16:23:56,-36.2325,-36.675,0,-0.48,-300.24,-300.36,31.874625,29.804125,-0.37515,-0.375,-7001.75,-7012.25,-49.99,-0.00225,-0.01275,-100.06,-1050.42,-1050.84,0.3456,-9.0072,-5.626125,-1249.375,-225,-0.2592,-9.0036,-9.0054,-5.62725,-5.626125,-0.624,44.8,-0.288,-0.24,6.1243085,5.310032,-2.5,24.994,-4.88,-4.67,-4.395,-4.295,0.010297,3.125,2.94,6.434154,3.215,-4.535,3.05,-0.105,-0.2,-0.25,0.192,3.157,2.84,0.025,-0.28125,100.936,0.268,-1.2,-8.25,103.935,0.06825,0.075425,-1.875,-1.875,0.268,-0.108,1.2,101.85,-10.8,-13.95,-1.95,-1.75,1535.15625,1534.875
2011/3/11 16:33:56,-36.5025,-36.87,0,-0.48,-300.18,-300.36,31.79775,29.824625,-0.375225,-0.375,-7003.5,-7017.5,-49.98,0.003,-0.01275,-100.04,-1050.42,-1050.84,0.5184,-9.0072,-5.6295,-1248.75,-224.94375,-0.1728,-9.0036,-9.0072,-5.628375,-5.626125,-0.728,44.8004,-0.192,-0.24,6.1244556,5.3508784,-2.5005,24.992,-4.885,-4.685,-4.4,-4.34,0.0110325,3.105,2.915,6.43378625,3.195,-4.57,3.025,-0.13,-0.205,-0.27,0.186,3.146,2.84,0.02,-0.28125,100.9305,0.268,-1.32,-8,103.93,0.06825,0.0749,-1.8,-2.025,0.268,-0.108,0.9,101.83,-10.35,-13.5,-1.9,-1.85,1535.25,1534.96875
2011/3/11 16:43:56,-36.7425,-37.005,-0.48,-0.48,-300.12,-300.3,31.7875,29.85025,-0.37515,-0.375,-7000,-7015.75,-49.98,-0.0075,-0.00225,-100.08,-1050.42,-1050.84,0.432,-9.009,-5.62725,-1249.0625,-225,0,-9.0018,-9.0054,-5.6295,-5.62725,-0.832,44.8,-0.192,-0.048,6.1246027,5.3925584,-2.5,24.99,-4.875,-4.69,-4.39,-4.345,0.01140025,3.11,2.915,6.43305075,3.16,-4.575,3.03,-0.125,-0.24,-0.275,0.192,3.146,2.84,0.01,-0.1875,100.958,0.267,-1.26,-7.75,103.925,0.0679,0.075075,-2.1,-2.025,0.2675,-0.108,1.2,101.83,-11.25,-13.95,-2.1,-1.8,1535.15625,1534.78125
2011/3/11 16:53:56,-36.9225,-37.125,0,0,-300.18,-300.3,31.792625,29.824625,-0.37515,-0.375,-7005.25,-7014,-49.99,0.00825,-0.00225,-100.1,-1050.84,-1050.84,0.2592,-9.0072,-5.628375,-1249.375,-225.1125,0,-9.0054,-9.0054,-5.6295,-5.62725,-0.728,44.8,-0.144,-0.192,6.1247498,5.4338216,-2.5,24.992,-4.855,-4.69,-4.37,-4.34,0.0110325,3.12,2.91,6.43378625,3.15,-4.55,3.035,-0.115,-0.2,-0.28,0.192,3.146,2.84,0.02,-0.28125,100.98,0.2675,-1.2,-7.75,103.935,0.06825,0.0749,-1.8,-1.95,0.2675,-0.108,1.2,101.84,-11.25,-13.95,-2.05,-1.8,1535.25,1534.78125
2011/3/11 17:03:56,-37.065,-37.2,0,-0.48,-300.3,-300.3,31.75675,29.799,-0.375225,-0.375,-7001.75,-7017.5,-49.97,-0.0075,-0.018,-100.08,-1050,-1051.05,0.2592,-9.009,-5.62725,-1249.0625,-224.94375,-0.0864,-9.0054,-9.009,-5.630625,-5.626125,-0.624,44.7992,-0.192,-0.096,6.1248969,5.474668,-2.5005,24.988,-4.875,-4.685,-4.395,-4.34,0.0110325,3.11,2.91,6.43378625,3.13,-4.55,3.015,-0.13,-0.235,-0.275,0.186,3.146,2.83,0.015,-0.375,100.991,0.2675,-1.26,-8.25,103.92,0.068075,0.074725,-2.025,-1.95,0.2665,-0.108,1.2,101.83,-11.25,-13.95,-2.2,-1.9,1535.15625,1534.6875
2011/3/11 17:13:56,-37.2,-37.275,0,0,-300.24,-300.36,31.792625,29.824625,-0.375225,-0.375075,-7005.25,-7019.25,-49.99,0.01875,-0.01275,-100.06,-1050.84,-1051.26,0.3456,-9.009,-5.628375,-1249.6875,-225,-0.0864,-9.0072,-9.0054,-5.628375,-5.626125,-0.728,44.8,-0.192,-0.24,6.12526465,5.5150976,-2.5,24.986,-4.86,-4.69,-4.385,-4.33,0.01066475,3.14,2.915,6.43305075,3.13,-4.54,3.015,-0.13,-0.24,-0.275,0.186,3.146,2.83,0.015,-0.375,101.0295,0.267,-1.2,-8,103.925,0.068075,0.074725,-1.875,-1.95,0.268,-0.102,1.2,101.84,-11.25,-14.4,-2.05,-1.8,1535.0625,1534.5
2011/3/11 17:23:56,-37.2825,-37.32,0,0,-300.24,-300.3,31.772125,29.793875,-0.375225,-0.375,-7000,-7017.5,-49.98,-0.0075,-0.02325,-100.1,-1050.42,-1051.05,0.5184,-9.0072,-5.6295,-1249.6875,-225,0,-9.0036,-9.0036,-5.630625,-5.625,-0.832,44.7996,-0.336,-0.192,6.1253382,5.5563608,-2.5,24.986,-4.86,-4.685,-4.37,-4.305,0.01140025,3.135,2.94,6.43305075,3.135,-4.545,3.045,-0.135,-0.225,-0.27,0.186,3.1405,2.83,0.015,-0.28125,101.0625,0.267,-1.26,-7.75,103.915,0.0679,0.074725,-1.8,-1.95,0.2665,-0.108,1.5,101.83,-11.25,-14.4,-2.1,-1.95,1534.875,1534.40625
2011/3/11 17:33:56,-37.35,-37.365,0,0,-300.24,-300.42,31.761875,29.799,-0.3753,-0.375075,-7003.5,-7017.5,-49.98,0.003,-0.018,-100.06,-1050.42,-1051.05,0.432,-9.009,-5.628375,-1249.0625,-225,0,-9.0036,-9.0072,-5.6295,-5.626125,-0.728,44.7988,-0.192,-0.192,6.12570595,5.5984576,-2.5,24.986,-4.86,-4.695,-4.365,-4.315,0.010297,3.15,2.93,6.432683,3.165,-4.54,3.045,-0.11,-0.23,-0.28,0.186,3.1515,2.84,0.015,-0.375,101.068,0.2655,-1.26,-8.25,103.915,0.0679,0.0749,-2.175,-2.025,0.268,-0.108,1.2,101.84,-11.25,-14.4,-2.05,-1.95,1535.15625,1534.40625
2011/3/11 17:43:56,-37.41,-37.3875,-0.48,0,-300.24,-300.3,31.741375,29.7785,-0.375225,-0.375,-7005.25,-7017.5,-49.97,0.0135,-0.00225,-100.12,-1050.42,-1051.05,0.3456,-9.0126,-5.6295,-1249.0625,-225,0,-9.0072,-9.0072,-5.630625,-5.62725,-0.728,44.7992,-0.192,-0.336,6.1257795,5.6380536,-2.5,24.984,-4.84,-4.685,-4.37,-4.315,0.01066475,3.145,2.955,6.432683,3.165,-4.55,3.045,-0.125,-0.23,-0.265,0.192,3.1405,2.82,0.01,-0.28125,101.079,0.266,-1.26,-8.5,103.915,0.0679,0.07455,-1.8,-2.1,0.267,-0.108,1.5,101.83,-11.25,-14.4,-2.1,-1.85,1535.0625,1534.40625
2011/3/11 17:53:56,-37.4475,-37.4175,0,0,-300.24,-300.3,31.726,29.793875,-0.3753,-0.375075,-7007,-7019.25,-49.98,0.0135,-0.00225,-100.08,-1050.84,-1051.26,0.432,-9.009,-5.6295,-1249.0625,-225,0,-9.0072,-9.009,-5.628375,-5.62725,-1.04,44.7988,-0.384,-0.384,6.1262208,5.6805672,-2.4995,24.982,-4.84,-4.68,-4.34,-4.31,0.0110325,3.16,2.955,6.43231525,3.18,-4.53,3.05,-0.105,-0.2,-0.26,0.192,3.1405,2.81,0.01,-0.28125,101.1065,0.266,-1.26,-7.75,103.915,0.06825,0.07455,-1.95,-1.875,0.267,-0.102,1.8,101.83,-11.25,-14.4,-2.15,-1.85,1535.0625,1534.21875
2011/3/11 18:03:56,-37.485,-37.44,0,-0.48,-300.18,-300.3,31.767,29.793875,-0.375225,-0.375,-7005.25,-7015.75,-49.98,0.00825,-0.01275,-100.08,-1050.42,-1051.26,0.3456,-9.0108,-5.628375,-1248.75,-225,0.0864,-9.0072,-9.009,-5.630625,-5.626125,-1.04,44.7992,-0.336,-0.24,6.126515,5.7214136,-2.5,24.982,-4.845,-4.675,-4.355,-4.27,0.01066475,3.165,2.97,6.43231525,3.2,-4.515,3.065,-0.11,-0.205,-0.25,0.174,3.146,2.82,0.01,-0.1875,101.09,0.2655,-1.2,-8.25,103.91,0.0679,0.0749,-1.875,-2.1,0.2665,-0.108,1.8,101.83,-11.7,-15.3,-2.1,-1.9,1534.875,1534.3125
2011/3/11 18:13:56,-37.5075,-37.4625,0,-0.48,-300.3,-300.3,31.726,29.793875,-0.3753,-0.37515,-7005.25,-7022.75,-49.97,0.003,-0.01275,-100.1,-1050.42,-1051.26,0.432,-9.0108,-5.6295,-1248.75,-225,0,-9.0072,-9.0072,-5.630625,-5.626125,-1.04,44.7988,-0.288,-0.288,6.1268092,5.7630936,-2.5,24.982,-4.84,-4.67,-4.335,-4.285,0.0110325,3.18,2.97,6.43231525,3.19,-4.525,3.085,-0.1,-0.2,-0.25,0.186,3.135,2.83,0.015,-0.28125,101.112,0.2665,-1.2,-8,103.915,0.0679,0.07455,-1.8,-1.875,0.267,-0.108,1.5,101.82,-11.7,-15.3,-2.1,-1.95,1534.875,1534.21875